Weather History for Chatham, MA

Change the Weather History Date:

Thursday, January 30, 2014

  Actual Average Record
Temperature  
Mean Temperature 18 °F -  
Max Temperature 30 °F 35 °F 53 °F (1990)
Min Temperature 8 °F 24 °F 7 °F (1977)
Degree Days  
Heating Degree Days 47    
Moisture  
Dew Point 8 °F    
Average Humidity 57    
Maximum Humidity 78    
Minimum Humidity 42    
Precipitation  
Precipitation 0.00 in - - ()
Sea Level Pressure  
Sea Level Pressure 30.37 in    
Wind  
Wind Speed 5 mph (SW)    
Max Wind Speed 10 mph    
Max Gust Speed -    
Visibility 10 miles    
Events      
Averages and records for this station are not official NWS values.
T = Trace of Precipitation, MM = Missing Value Source: NWS Daily Summary

Daily Weather History Graph

Daily Weather History Graph

Search for Another Location

Airport:

Trip Planner

Search our weather history database for the weather conditions in past years. The results will help you decide how hot, cold, wet, or windy it might be!

Date:

Astronomy

Jan. 30, 2014 Rise Set
Actual Time 6:54 AM EST 4:53 PM EST
Civil Twilight 6:24 AM EST 5:22 PM EST
Nautical Twilight 5:51 AM EST 5:55 PM EST
Astronomical Twilight 5:18 AM EST 6:28 PM EST
Moon 6:16 AM EST (1/30) 5:01 PM EST (1/30)
Length of Visible Light 10h 58m
Length of Day
9h 58m
Waning Crescent, 0% of the Moon is Illuminated
Jan 30
Waning Crescent
Jan 30
New
Feb 6
First Quarter
Feb 14
Full
Feb 22
Last Quarter

Hourly Weather History & Observations

Time (EST) Temp. Windchill Dew Point Humidity Pressure Visibility Wind Dir Wind Speed Gust Speed Precip Events Conditions
12:52 AM 19.0 °F 10.0 °F -0.9 °F 42% 30.26 in 10.0 mi West 6.9 mph - N/A   Clear
1:52 AM 14.0 °F 8.2 °F -0.0 °F 54% 30.30 in 10.0 mi WSW 3.5 mph - N/A   Clear
2:52 AM 12.9 °F 6.9 °F -0.0 °F 56% 30.32 in 10.0 mi Variable 3.5 mph - N/A   Clear
3:52 AM 10.9 °F 4.7 °F -2.0 °F 56% 30.33 in 10.0 mi WSW 3.5 mph - N/A   Clear
4:52 AM 8.1 °F 1.4 °F -2.0 °F 64% 30.35 in 10.0 mi WSW 3.5 mph - N/A   Clear
5:52 AM 12.0 °F 4.1 °F -2.9 °F 51% 30.39 in 10.0 mi West 4.6 mph - N/A   Clear
6:52 AM 10.9 °F 4.7 °F -2.9 °F 54% 30.42 in 10.0 mi West 3.5 mph - N/A   Clear
7:52 AM 15.1 °F 7.7 °F -0.9 °F 49% 30.43 in 10.0 mi Variable 4.6 mph - N/A   Clear
8:52 AM 19.9 °F - 3.0 °F 48% 30.45 in 10.0 mi Calm Calm - N/A   Clear
9:52 AM 23.0 °F 15.8 °F 5.0 °F 46% 30.45 in 10.0 mi Variable 5.8 mph - N/A   Clear
10:52 AM 24.1 °F - 6.1 °F 46% 30.46 in 10.0 mi Calm Calm - N/A   Clear
11:52 AM 25.0 °F 17.1 °F 7.0 °F 46% 30.44 in 10.0 mi South 6.9 mph - N/A   Clear
12:52 PM 25.0 °F 16.3 °F 5.0 °F 43% 30.42 in 10.0 mi SW 8.1 mph - N/A   Clear
1:52 PM 25.0 °F 18.1 °F 7.0 °F 46% 30.40 in 10.0 mi Variable 5.8 mph - N/A   Clear
2:52 PM 26.1 °F 16.2 °F 8.1 °F 47% 30.40 in 10.0 mi SSW 10.4 mph - N/A   Clear
3:52 PM 26.1 °F 19.4 °F 10.9 °F 53% 30.39 in 10.0 mi Variable 5.8 mph - N/A   Clear
4:52 PM 24.1 °F 14.4 °F 12.0 °F 60% 30.38 in 10.0 mi WSW 9.2 mph - N/A   Clear
5:52 PM 24.1 °F 19.7 °F 14.0 °F 65% 30.38 in 10.0 mi WSW 3.5 mph - N/A   Clear
6:52 PM 23.0 °F 17.0 °F 15.1 °F 72% 30.37 in 10.0 mi SW 4.6 mph - N/A   Clear
7:52 PM 27.0 °F 18.7 °F 18.0 °F 69% 30.35 in 10.0 mi SSW 8.1 mph - N/A   Clear
8:52 PM 27.0 °F 20.5 °F 19.9 °F 75% 30.30 in 10.0 mi South 5.8 mph - N/A   Clear
9:52 PM 28.0 °F 20.8 °F 21.9 °F 78% 30.27 in 10.0 mi Variable 6.9 mph - N/A   Clear
10:52 PM 28.9 °F 21.1 °F 23.0 °F 78% 30.29 in 10.0 mi SSW 8.1 mph - N/A   Mostly Cloudy
11:52 PM 30.0 °F 22.4 °F 23.0 °F 75% 30.26 in 10.0 mi South 8.1 mph - N/A   Mostly Cloudy